User: anonymous   Login
Location: Unspecified
(0.0000°N, 0.0000°E)
Time: 23:30:07
(UTC+00:00)
Language:

Hubble Space Telescope - Orbit

View from above orbital plane
View from above orbital plane
View from above satellite
View from above satellite

Ground track
Ground track

The orbit data is extracted from the following two-line orbital elements,

1 20580U 90037B   18200.75924769  .00000359  00000-0  10969-4 0  9990
2 20580  28.4687 259.7857 0002886 126.7397 166.4988 15.09066870350398
Epoch (UTC): 19 July 2018 18:13:19
Eccentricity: 0.0002886
inclination: 28.4687°
perigee height: 537 km
apogee height: 541 km
right ascension of ascending node: 259.7857°
argument of perigee: 126.7397°
revolutions per day: 15.09066870
mean anomaly at epoch: 166.4988°
orbit number at epoch: 35039

The dashed part of the orbit path shows where the satellite is in the earth's shadow,  

DLR